FW7253 Weather Reports


Display with metric or nautical units.
time (UTC)temp
F
wind
direction
speed
MPH
gust
MPH
rain 1hr
in
rain 24hr
in
rain mn
in
humidity
%
barometer
mb
20260504234542 39 0 0.0 4.0 0.00 0.00 0.00 52 1008.7
20260504234036 39 136 0.0 4.0 0.00 0.00 0.00 51 1008.8
20260504233537 39 0 0.0 1.0 0.00 0.00 0.00 51 1008.7
20260504233050 39 0 0.0 4.0 0.00 0.00 0.00 51 1008.7
20260504232533 40 0 0.0 12.0 0.00 0.00 0.00 50 1008.6
20260504232033 41 0 2.0 14.0 0.00 0.00 0.00 48 1008.6
20260504231547 41 346 7.0 14.0 0.00 0.00 0.00 48 1008.4
20260504231033 41 349 6.0 13.0 0.00 0.00 0.00 49 1008.5
20260504230534 41 285 7.0 14.0 0.00 0.00 0.00 49 1008.5
20260504230047 41 342 7.0 15.0 0.00 0.00 0.00 49 1008.6
20260504225534 41 278 6.0 15.0 0.00 0.00 0.00 50 1008.6
20260504225036 41 316 8.0 13.0 0.00 0.00 0.00 50 1008.6
20260504224548 41 299 5.0 10.0 0.00 0.00 0.00 53 1008.7
20260504224036 41 308 4.0 12.0 0.00 0.00 0.00 53 1008.7
20260504223535 42 323 5.0 12.0 0.00 0.00 0.00 53 1008.6
20260504223045 42 269 4.0 12.0 0.00 0.00 0.00 53 1008.6
20260504222534 42 335 4.0 15.0 0.00 0.00 0.00 53 1008.4
20260504222033 42 347 8.0 15.0 0.00 0.00 0.00 53 1008.3
20260504221543 42 328 7.0 14.0 0.00 0.00 0.00 53 1008.2
20260504221034 43 321 7.0 15.0 0.00 0.00 0.00 53 1008.2
20260504220534 43 259 7.0 15.0 0.00 0.00 0.00 54 1008.2
20260504220051 43 207 5.0 11.0 0.00 0.00 0.00 54 1008.1
20260504215534 43 351 5.0 11.0 0.00 0.00 0.00 54 1008.1
20260504215034 43 312 5.0 11.0 0.00 0.00 0.00 54 1008.0
20260504214551 44 215 5.0 10.0 0.00 0.00 0.00 54 1008.0
20260504214033 44 355 6.0 12.0 0.00 0.00 0.00 54 1007.8
20260504213533 44 326 4.0 12.0 0.00 0.00 0.00 55 1007.8
20260504213053 44 319 7.0 12.0 0.00 0.00 0.00 55 1007.7
20260504212534 45 354 4.0 13.0 0.00 0.00 0.00 54 1007.6
20260504212033 45 340 5.0 13.0 0.00 0.00 0.00 54 1007.7
20260504211545 45 298 7.0 13.0 0.00 0.00 0.00 53 1007.5
20260504211034 45 325 6.0 11.0 0.00 0.00 0.00 55 1007.5
20260504210533 46 356 6.0 14.0 0.00 0.00 0.00 55 1007.4
20260504210044 46 351 5.0 14.0 0.00 0.00 0.00 55 1007.5
20260504205533 46 350 6.0 13.0 0.00 0.00 0.00 56 1007.3
20260504205033 47 313 3.0 9.0 0.00 0.00 0.00 60 1007.2
20260504204539 47 4 3.0 9.0 0.00 0.00 0.00 62 1007.1
20260504204034 47 314 3.0 8.0 0.00 0.00 0.00 62 1007.1
20260504203534 47 240 3.0 9.0 0.00 0.00 0.00 64 1007.0
20260504203041 47 274 2.0 9.0 0.00 0.00 0.00 64 1006.9
20260504202534 47 259 1.0 10.0 0.00 0.00 0.00 64 1006.9
20260504202035 48 220 4.0 12.0 0.00 0.00 0.00 63 1006.8
20260504201548 48 262 6.0 12.0 0.00 0.00 0.00 63 1006.7
20260504201033 48 243 7.0 11.0 0.00 0.00 0.00 62 1006.6
20260504200534 48 238 6.0 13.0 0.00 0.00 0.00 62 1006.6
20260504200043 48 229 7.0 15.0 0.00 0.00 0.00 61 1006.6
20260504195533 49 293 8.0 15.0 0.00 0.00 0.00 60 1006.5
20260504195033 49 245 8.0 16.0 0.00 0.00 0.00 60 1006.4
20260504194547 49 239 7.0 16.0 0.00 0.00 0.00 59 1006.5
20260504194034 49 243 8.0 14.0 0.00 0.00 0.00 58 1006.5
20260504193534 49 260 8.0 19.0 0.00 0.00 0.00 58 1006.5
20260504193042 50 252 10.0 19.0 0.00 0.00 0.00 57 1006.4
20260504192533 50 232 9.0 15.0 0.00 0.00 0.00 58 1006.2
20260504192033 50 224 7.0 13.0 0.00 0.00 0.00 59 1006.2
20260504191552 50 296 5.0 14.0 0.00 0.00 0.00 58 1006.2
20260504191035 50 299 7.0 18.0 0.00 0.00 0.00 58 1006.0
20260504190534 51 238 7.0 18.0 0.00 0.00 0.00 58 1005.9
20260504190049 51 9 10.0 20.0 0.00 0.00 0.00 57 1005.8
20260504185533 51 240 10.0 20.0 0.00 0.00 0.00 57 1005.6
20260504185033 51 279 11.0 20.0 0.00 0.00 0.00 56 1005.6
20260504184552 51 231 11.0 18.0 0.00 0.00 0.00 55 1005.6
20260504184034 52 198 7.0 22.0 0.00 0.00 0.00 55 1005.5
20260504183534 52 290 7.0 22.0 0.00 0.00 0.00 54 1005.7
20260504183047 52 305 8.0 20.0 0.00 0.00 0.00 52 1006.1
20260504182533 53 233 9.0 22.0 0.00 0.00 0.00 51 1005.8
20260504182035 53 226 11.0 22.0 0.00 0.00 0.00 50 1005.7
20260504181549 53 219 9.0 15.0 0.00 0.00 0.00 50 1005.4
20260504181033 53 251 7.0 18.0 0.00 0.00 0.00 49 1005.6
20260504180534 53 241 10.0 18.0 0.00 0.00 0.00 49 1005.4
20260504180045 53 240 9.0 13.0 0.00 0.00 0.00 49 1005.4
20260504175533 54 248 7.0 20.0 0.00 0.00 0.00 48 1005.3
20260504175035 54 295 8.0 30.0 0.00 0.00 0.00 47 1005.3
20260504174541 54 292 9.0 30.0 0.00 0.00 0.00 45 1005.2
20260504174034 55 284 15.0 29.0 0.00 0.00 0.00 45 1005.2
20260504173533 55 202 8.0 24.0 0.00 0.00 0.00 45 1005.1
20260504173040 55 282 12.0 24.0 0.00 0.00 0.00 45 1005.2
20260504172609 55 250 11.0 25.0 0.00 0.00 0.00 44 1005.3
20260504172033 55 250 14.0 25.0 0.00 0.00 0.00 44 1005.1
20260504171549 56 218 15.0 24.0 0.00 0.00 0.00 43 1005.1
20260504171034 56 217 11.0 20.0 0.00 0.00 0.00 43 1005.2
20260504170534 57 262 7.0 18.0 0.00 0.00 0.00 42 1005.1
20260504151035 59 248 13.0 22.0 0.00 0.00 0.00 37 1005.3
20260504150534 59 237 7.0 17.0 0.00 0.00 0.00 38 1005.3
20260504141033 59 230 10.0 27.0 0.00 0.00 0.00 36 1005.2
20260504140533 59 245 10.0 20.0 0.00 0.00 0.00 37 1005.3
20260504130533 61 262 10.0 26.0 0.00 0.00 0.00 32 1005.6
20260504110533 59 252 4.0 13.0 0.00 0.00 0.00 36 1006.0
20260504100532 56 293 3.0 12.0 0.00 0.00 0.00 37 1006.2
20260504081541 52 334 6.0 14.0 0.00 0.00 0.00 48 1006.4
20260504081033 51 343 7.0 14.0 0.00 0.00 0.00 49 1006.4
20260504080532 51 4 6.0 12.0 0.00 0.00 0.00 50 1006.4
20260504050540 42 336 0.0 3.0 0.00 0.00 0.00 92 1005.3
20260504045533 42 2 2.0 4.0 0.00 0.00 0.00 92 1005.4
20260504045033 42 354 2.0 4.0 0.00 0.00 0.00 93 1005.4
20260504044546 41 6 1.0 3.0 0.00 0.00 0.00 92 1005.3
20260504044034 41 18 0.0 1.0 0.00 0.00 0.00 92 1005.3
20260504043533 41 338 0.0 1.0 0.00 0.00 0.00 93 1005.3
20260504043042 41 0 0.0 1.0 0.00 0.00 0.00 92 1005.2
20260504042532 39 0 0.0 1.0 0.00 0.00 0.00 92 1005.3
20260504042032 39 0 0.0 0.0 0.00 0.00 0.00 92 1005.3
20260504041546 40 0 0.0 0.0 0.00 0.00 0.00 91 1005.3
20260504041032 40 0 0.0 0.0 0.00 0.00 0.00 91 1005.3
20260504040533 40 0 0.0 0.0 0.00 0.00 0.00 91 1005.2
20260504040053 40 0 0.0 1.0 0.00 0.00 0.00 91 1005.3
20260504035533 40 0 0.0 1.0 0.00 0.00 0.00 90 1005.3
20260504035032 41 0 0.0 1.0 0.00 0.00 0.00 90 1005.3
20260504034557 42 0 0.0 3.0 0.00 0.00 0.00 90 1005.4
20260504034033 42 0 0.0 3.0 0.00 0.00 0.00 90 1005.5
20260504033533 42 358 0.0 3.0 0.00 0.00 0.00 90 1005.4
20260504033114 43 344 0.0 3.0 0.00 0.00 0.00 90 1005.4
20260504032533 43 0 2.0 3.0 0.00 0.00 0.00 90 1005.3
20260504032032 43 1 1.0 2.0 0.00 0.00 0.00 89 1005.4
20260504031538 44 0 0.0 0.0 0.00 0.00 0.00 89 1005.5
20260504031035 44 0 0.0 0.0 0.00 0.00 0.00 89 1005.5
20260504030533 44 0 0.0 0.0 0.00 0.00 0.00 89 1005.6
20260504030047 45 0 0.0 0.0 0.00 0.00 0.00 88 1005.6
20260504025534 45 0 0.0 0.0 0.00 0.00 0.00 88 1005.5
20260504025033 45 0 0.0 0.0 0.00 0.00 0.00 88 1005.5
20260504024541 45 0 0.0 1.0 0.00 0.00 0.00 88 1005.7
20260504024033 45 0 0.0 3.0 0.00 0.00 0.00 88 1005.7
20260504023533 45 0 0.0 3.0 0.00 0.00 0.00 88 1005.6
20260504023057 46 227 1.0 3.0 0.00 0.00 0.00 88 1005.6
20260504022533 46 0 0.0 1.0 0.00 0.00 0.00 87 1005.5
20260504022032 46 0 0.0 4.0 0.00 0.00 0.00 87 1005.7
20260504021546 46 0 0.0 4.0 0.00 0.00 0.00 87 1005.7
20260504021032 46 229 0.0 2.0 0.00 0.00 0.00 87 1005.7
20260504020533 46 0 0.0 3.0 0.00 0.00 0.00 87 1005.8
20260504020057 46 0 0.0 3.0 0.00 0.00 0.00 87 1005.7
20260504015532 46 212 0.0 2.0 0.00 0.00 0.00 88 1005.8
20260504015036 46 286 0.0 3.0 0.00 0.00 0.00 87 1005.9
20260504014548 46 0 0.0 3.0 0.00 0.00 0.00 87 1005.8
20260504014032 47 306 0.0 3.0 0.00 0.00 0.00 87 1005.8
20260504013533 47 0 0.0 2.0 0.00 0.00 0.00 88 1005.8
20260504013045 47 0 0.0 3.0 0.00 0.00 0.00 87 1005.9
20260504012533 47 269 0.0 3.0 0.00 0.00 0.00 88 1005.8
20260504012033 47 0 0.0 2.0 0.00 0.00 0.00 89 1005.9
20260504011540 47 0 0.0 1.0 0.00 0.00 0.00 89 1006.0
20260504011032 47 0 0.0 1.0 0.00 0.00 0.00 89 1006.0
20260504010532 47 0 0.0 1.0 0.00 0.00 0.00 89 1006.0
20260504010047 47 275 0.0 1.0 0.00 0.00 0.00 88 1006.1
20260504005532 47 0 0.0 2.0 0.00 0.00 0.00 88 1006.2
20260504005032 47 0 0.0 2.0 0.00 0.00 0.00 88 1006.1
20260504004559 47 0 0.0 4.0 0.00 0.00 0.00 88 1006.2
20260504004033 47 0 1.0 4.0 0.00 0.00 0.00 88 1006.2
20260504003532 47 158 1.0 4.0 0.00 0.00 0.00 88 1006.1
20260504003038 47 0 0.0 3.0 0.00 0.00 0.00 89 1006.2
20260504002533 47 165 0.0 2.0 0.00 0.00 0.00 89 1006.4
20260504002033 47 0 0.0 1.0 0.00 0.00 0.00 89 1006.4
20260504001541 47 0 0.0 1.0 0.00 0.00 0.00 89 1006.5
20260504001032 47 0 0.0 2.0 0.00 0.00 0.00 89 1006.6
20260504000533 47 211 0.0 2.0 0.00 0.00 0.00 89 1006.5
20260504000041 47 0 0.0 3.0 0.00 0.00 0.00 89 1006.6
20260503235533 47 0 0.0 3.0 0.00 0.00 0.00 90 1006.6
20260503235033 47 0 0.0 1.0 0.00 0.00 0.00 90 1006.6